Погода в Курессааре

Эстония     58°15′18″N   22°29′51″E
темп.,
°C
ветер,
м/с
пор.,
м/с
влажн.,
%
обл.,
%
осадки,
мм/ч
давл.,
гПа
погр.,
м
29 июня, ср
ср2900:00+20вюв35885 0.0 101774
03:00+18ююв229420 0.0 101728
06:00+18юв349211 0.1 101776
09:00+20ююз348543 0.1 1017195
12:00+21ююв3380100 0.0 1018334
15:00+21юв3380100 0.0 1018299
18:00+22ю227781 0.0 1017280
21:00+21ююз348669 0.0 1017105
30 июня, чт
чт3000:00+19сз229345 0.0 101718
03:00+18ссз11935 0.3 101711
06:00+18ссв119134 0.4 101715
09:00+21вюв348312 0.4 1018237
12:00+21вюв4681100 0.0 1018269
15:00+22вюв477750 0.0 1018359
18:00+23вюв3577100 0.0 1017231
21:00+21вюв3584100 0.3 101785
1 июля, пт
пт100:00+19в3493100 0.0 101858
03:00+19юв489241 0.0 1018113
06:00+19юв499088 0.0 1018162
09:00+20юв3692100 0.6 1018138
12:00+21юв6118495 0.0 1018286
15:00+23юв6107355 0.0 1018364
18:00+23юв6116758 0.0 1018299
21:00+23ююв5107330 0.0 1017172
2 июля, сб
сб200:00+21ю5108112 0.0 1018162
03:00+20ююв49795 0.0 1018142
06:00+19ююв51184100 0.0 1018199
09:00+20ююв697987 0.0 1018237
12:00+21ююв57745 0.0 1018343
15:00+23ююз45695 0.0 1018479
18:00+21зюз578021 0.0 1018429
21:00+20з46825 0.0 1018324
3 июля, вс
вс300:00+17з37925 0.0 1019169
03:00+16з349212 0.0 102087
06:00+17сз36855 0.0 1020139
09:00+21сз34540 0.0 1020333
12:00+23зсз23490 0.0 1020813
15:00+24з44460 0.0 1020976
18:00+23зсз55484 0.0 1020736
21:00+20з23675 0.0 102030